When you browse on this site, cookies collect data to enhance your experience and personalize the content and advertising you see.
Visit our Privacy Policy to learn more. By continuing to use the site, you agree to this use of cookies and data.
  • In Österreich
  • Länderverzeichnis
  • Für 7 Tage
  • Wassertemperatur
  • Satellitenkarten
  • Wetterkarte
  • News
  • Widgets
  • user-avatar
    Anmelden

    Stündliche Wetter Zaranj

    Heute, 25 Juni, Dienstag

    Zeit Temperatur Niederschläge Wind Luftdruck Luftfeuchtigkeit
    00:00 +34°C° 0 mm 12 m/S 712 mmHg 14%
    01:00 +34°C° 0 mm 12 m/S 712 mmHg 15%
    02:00 +33°C° 0 mm 12 m/S 712 mmHg 16%
    03:00 +32°C° 0 mm 11 m/S 712 mmHg 17%
    04:00 +32°C° 0 mm 11 m/S 711 mmHg 17%
    05:00 +32°C° 0 mm 12 m/S 712 mmHg 16%
    06:00 +33°C° 0 mm 12 m/S 713 mmHg 15%
    07:00 +34°C° 0 mm 12 m/S 714 mmHg 14%
    08:00 +37°C° 0 mm 12 m/S 714 mmHg 12%
    09:00 +41°C° 0 mm 12 m/S 714 mmHg 9%
    10:00 +43°C° 0 mm 11 m/S 714 mmHg 7%
    11:00 +45°C° 0 mm 10 m/S 714 mmHg 6%
    12:00 +46°C° 0 mm 8 m/S 713 mmHg 5%
    13:00 +47°C° 0 mm 7 m/S 713 mmHg 4%
    14:00 +47°C° 0 mm 7 m/S 713 mmHg 4%
    15:00 +49°C° 0 mm 8 m/S 712 mmHg 4%
    16:00 +49°C° 0 mm 8 m/S 712 mmHg 4%
    17:00 +46°C° 0 mm 8 m/S 712 mmHg 6%
    18:00 +44°C° 0 mm 8 m/S 712 mmHg 8%
    19:00 +41°C° 0 mm 8 m/S 712 mmHg 10%
    20:00 +40°C° 0 mm 8 m/S 712 mmHg 10%
    21:00 +38°C° 0 mm 9 m/S 712 mmHg 11%
    22:00 +37°C° 0 mm 9 m/S 712 mmHg 12%
    23:00 +37°C° 0 mm 9 m/S 712 mmHg 13%

    Morgen, 26 Juni, Mittwoch

    Zeit Temperatur Niederschläge Wind Luftdruck Luftfeuchtigkeit
    00:00 +36°C° 0 mm 10 m/S 712 mmHg 14%
    01:00 +34°C° 0 mm 10 m/S 711 mmHg 14%
    02:00 +33°C° 0 mm 10 m/S 711 mmHg 15%
    03:00 +33°C° 0 mm 10 m/S 711 mmHg 15%
    04:00 +33°C° 0 mm 10 m/S 711 mmHg 15%
    05:00 +34°C° 0 mm 11 m/S 711 mmHg 14%
    06:00 +36°C° 0 mm 12 m/S 712 mmHg 13%
    07:00 +37°C° 0 mm 13 m/S 712 mmHg 11%
    08:00 +39°C° 0 mm 13 m/S 712 mmHg 10%
    09:00 +42°C° 0 mm 14 m/S 712 mmHg 8%
    10:00 +45°C° 0 mm 15 m/S 712 mmHg 7%
    11:00 +46°C° 0 mm 15 m/S 712 mmHg 6%
    12:00 +49°C° 0 mm 15 m/S 712 mmHg 5%
    13:00 +50°C° 0 mm 14 m/S 711 mmHg 5%
    14:00 +48°C° 0 mm 14 m/S 711 mmHg 5%
    15:00 +48°C° 0 mm 14 m/S 710 mmHg 5%
    16:00 +48°C° 0 mm 14 m/S 710 mmHg 5%
    17:00 +46°C° 0 mm 13 m/S 710 mmHg 6%
    18:00 +43°C° 0 mm 11 m/S 710 mmHg 7%
    19:00 +40°C° 0 mm 10 m/S 710 mmHg 8%
    20:00 +39°C° 0 mm 10 m/S 710 mmHg 9%
    21:00 +38°C° 0 mm 10 m/S 710 mmHg 9%
    22:00 +35°C° 0 mm 9 m/S 710 mmHg 10%
    23:00 +36°C° 0 mm 10 m/S 710 mmHg 11%

    übermorgen, 27 Juni, Donnerstag

    Zeit Temperatur Niederschläge Wind Luftdruck Luftfeuchtigkeit
    00:00 +36°C° 0 mm 11 m/S 710 mmHg 11%
    01:00 +34°C° 0 mm 12 m/S 710 mmHg 11%
    02:00 +34°C° 0 mm 12 m/S 709 mmHg 12%
    03:00 +33°C° 0 mm 12 m/S 709 mmHg 12%
    04:00 +33°C° 0 mm 11 m/S 709 mmHg 13%
    05:00 +34°C° 0 mm 12 m/S 710 mmHg 12%
    06:00 +36°C° 0 mm 12 m/S 710 mmHg 12%
    07:00 +37°C° 0 mm 13 m/S 711 mmHg 11%
    08:00 +39°C° 0 mm 13 m/S 711 mmHg 10%
    09:00 +42°C° 0 mm 13 m/S 711 mmHg 8%
    10:00 +45°C° 0 mm 13 m/S 711 mmHg 7%
    11:00 +46°C° 0 mm 13 m/S 710 mmHg 6%
    12:00 +47°C° 0 mm 13 m/S 710 mmHg 6%
    13:00 +48°C° 0 mm 13 m/S 709 mmHg 5%
    14:00 +48°C° 0 mm 13 m/S 709 mmHg 5%
    15:00 +48°C° 0 mm 13 m/S 708 mmHg 5%
    16:00 +48°C° 0 mm 13 m/S 708 mmHg 5%
    17:00 +47°C° 0 mm 12 m/S 708 mmHg 7%
    18:00 +44°C° 0 mm 11 m/S 708 mmHg 9%
    19:00 +42°C° 0 mm 10 m/S 708 mmHg 11%
    20:00 +40°C° 0 mm 10 m/S 708 mmHg 12%
    21:00 +39°C° 0 mm 10 m/S 708 mmHg 13%
    22:00 +38°C° 0 mm 10 m/S 708 mmHg 14%
    23:00 +37°C° 0 mm 10 m/S 708 mmHg 14%

    28 Juni, Freitag

    Zeit Temperatur Niederschläge Wind Luftdruck Luftfeuchtigkeit
    00:00 +37°C° 0 mm 10 m/S 708 mmHg 15%
    01:00 +36°C° 0 mm 10 m/S 708 mmHg 15%
    02:00 +36°C° 0 mm 10 m/S 708 mmHg 16%
    03:00 +34°C° 0 mm 10 m/S 708 mmHg 16%
    04:00 +34°C° 0 mm 10 m/S 708 mmHg 16%
    05:00 +36°C° 0 mm 11 m/S 708 mmHg 15%
    06:00 +37°C° 0 mm 11 m/S 709 mmHg 14%
    07:00 +38°C° 0 mm 12 m/S 709 mmHg 13%
    08:00 +41°C° 0 mm 12 m/S 709 mmHg 11%
    09:00 +43°C° 0 mm 12 m/S 710 mmHg 9%
    10:00 +46°C° 0 mm 12 m/S 710 mmHg 7%
    11:00 +47°C° 0 mm 11 m/S 709 mmHg 7%
    12:00 +49°C° 0 mm 11 m/S 709 mmHg 6%
    13:00 +51°C° 0 mm 11 m/S 708 mmHg 5%
    14:00 +51°C° 0 mm 11 m/S 708 mmHg 5%
    15:00 +51°C° 0 mm 11 m/S 708 mmHg 5%
    16:00 +51°C° 0 mm 11 m/S 707 mmHg 5%
    17:00 +48°C° 0 mm 10 m/S 707 mmHg 7%
    18:00 +45°C° 0 mm 10 m/S 707 mmHg 8%
    19:00 +43°C° 0 mm 9 m/S 707 mmHg 10%
    20:00 +42°C° 0 mm 10 m/S 708 mmHg 11%
    21:00 +40°C° 0 mm 10 m/S 708 mmHg 12%
    22:00 +41°C° 0 mm 11 m/S 708 mmHg 13%
    23:00 +38°C° 0 mm 10 m/S 708 mmHg 14%

    29 Juni, Samstag

    Zeit Temperatur Niederschläge Wind Luftdruck Luftfeuchtigkeit
    00:00 +37°C° 0 mm 9 m/S 708 mmHg 16%
    01:00 +35°C° 0 mm 9 m/S 708 mmHg 18%
    02:00 +34°C° 0 mm 8 m/S 708 mmHg 20%
    03:00 +34°C° 0 mm 8 m/S 708 mmHg 22%
    04:00 +33°C° 0 mm 7 m/S 708 mmHg 23%
    05:00 +34°C° 0 mm 8 m/S 708 mmHg 21%
    06:00 +37°C° 0 mm 9 m/S 709 mmHg 19%
    07:00 +38°C° 0 mm 10 m/S 709 mmHg 17%
    08:00 +42°C° 0 mm 10 m/S 709 mmHg 14%
    09:00 +44°C° 0 mm 11 m/S 709 mmHg 11%
    10:00 +48°C° 0 mm 11 m/S 710 mmHg 8%
    11:00 +49°C° 0 mm 10 m/S 709 mmHg 7%
    12:00 +50°C° 0 mm 10 m/S 709 mmHg 6%
    13:00 +53°C° 0 mm 9 m/S 708 mmHg 6%
    14:00 +53°C° 0 mm 9 m/S 708 mmHg 5%
    15:00 +53°C° 0 mm 10 m/S 707 mmHg 5%
    16:00 +53°C° 0 mm 10 m/S 707 mmHg 5%
    17:00 +50°C° 0 mm 8 m/S 707 mmHg 7%
    18:00 +46°C° 0 mm 6 m/S 707 mmHg 8%
    19:00 +43°C° 0 mm 5 m/S 706 mmHg 9%
    20:00 +42°C° 0 mm 5 m/S 707 mmHg 10%
    21:00 +41°C° 0 mm 5 m/S 707 mmHg 11%
    22:00 +40°C° 0 mm 6 m/S 707 mmHg 12%
    23:00 +38°C° 0 mm 6 m/S 707 mmHg 14%

    30 Juni, Sonntag

    Zeit Temperatur Niederschläge Wind Luftdruck Luftfeuchtigkeit
    00:00 +36°C° 0 mm 5 m/S 707 mmHg 16%
    01:00 +35°C° 0 mm 5 m/S 707 mmHg 19%
    02:00 +35°C° 0 mm 5 m/S 707 mmHg 19%
    03:00 +35°C° 0 mm 6 m/S 707 mmHg 20%
    04:00 +34°C° 0 mm 6 m/S 707 mmHg 20%
    05:00 +36°C° 0 mm 6 m/S 707 mmHg 18%
    06:00 +39°C° 0 mm 7 m/S 708 mmHg 16%
    07:00 +40°C° 0 mm 7 m/S 708 mmHg 14%
    08:00 +44°C° 0 mm 7 m/S 708 mmHg 11%
    09:00 +46°C° 0 mm 6 m/S 709 mmHg 9%
    10:00 +49°C° 0 mm 5 m/S 709 mmHg 6%
    11:00 +50°C° 0 mm 5 m/S 708 mmHg 5%
    12:00 +52°C° 0 mm 5 m/S 708 mmHg 5%
    13:00 +53°C° 0 mm 5 m/S 708 mmHg 4%
    14:00 +54°C° 0 mm 5 m/S 707 mmHg 4%
    15:00 +54°C° 0 mm 6 m/S 707 mmHg 4%
    16:00 +54°C° 0 mm 6 m/S 706 mmHg 4%
    17:00 +52°C° 0 mm 6 m/S 706 mmHg 5%
    18:00 +48°C° 0 mm 6 m/S 706 mmHg 7%
    19:00 +46°C° 0 mm 5 m/S 706 mmHg 8%
    20:00 +45°C° 0 mm 5 m/S 706 mmHg 9%
    21:00 +42°C° 0 mm 4 m/S 706 mmHg 10%
    22:00 +41°C° 0 mm 4 m/S 706 mmHg 11%
    23:00 +40°C° 0 mm 4 m/S 706 mmHg 11%
    Mehr zeigen